Meteo pe oră la Dabrowica

Astăzi, 23 Aprilie, Vineri

Timp Temperatura Precipitaţii Vânt Presiune Umiditate
00:00 0°C° 0 mm 4 m/s 744 mmHg 81%
01:00 -1°C° 0 mm 4 m/s 744 mmHg 84%
02:00 -1°C° 0 mm 4 m/s 744 mmHg 84%
03:00 0°C° 0 mm 3 m/s 744 mmHg 84%
04:00 -1°C° 0 mm 3 m/s 744 mmHg 85%
05:00 0°C° 0 mm 4 m/s 744 mmHg 79%
06:00 +1°C° 0 mm 5 m/s 745 mmHg 74%
07:00 +2°C° 0 mm 6 m/s 745 mmHg 69%
08:00 +3°C° 0.1 mm 6 m/s 745 mmHg 63%
09:00 +4°C° 0.1 mm 6 m/s 745 mmHg 56%
10:00 +5°C° 0.1 mm 6 m/s 745 mmHg 50%
11:00 +7°C° 0.1 mm 6 m/s 745 mmHg 47%
12:00 +8°C° 0.1 mm 6 m/s 745 mmHg 44%
13:00 +8°C° 0.1 mm 6 m/s 745 mmHg 41%
14:00 +8°C° 0.1 mm 7 m/s 745 mmHg 46%
15:00 +6°C° 0.1 mm 7 m/s 745 mmHg 52%
16:00 +6°C° 0.1 mm 7 m/s 745 mmHg 58%
17:00 +4°C° 0.2 mm 6 m/s 745 mmHg 65%
18:00 +3°C° 0.2 mm 5 m/s 746 mmHg 72%
19:00 +3°C° 0.2 mm 4 m/s 746 mmHg 78%
20:00 +3°C° 0.1 mm 4 m/s 746 mmHg 81%
21:00 +1°C° 0.1 mm 4 m/s 747 mmHg 84%
22:00 +1°C° 0.1 mm 4 m/s 747 mmHg 86%
23:00 0°C° 0 mm 4 m/s 747 mmHg 88%

Mâine, 24 Aprilie, Sâmbătă

Timp Temperatura Precipitaţii Vânt Presiune Umiditate
00:00 -1°C° 0 mm 4 m/s 747 mmHg 90%
01:00 -1°C° 0 mm 4 m/s 747 mmHg 92%
02:00 -1°C° 0 mm 4 m/s 747 mmHg 93%
03:00 -2°C° 0 mm 4 m/s 747 mmHg 94%
04:00 -1°C° 0 mm 3 m/s 747 mmHg 94%
05:00 -1°C° 0 mm 4 m/s 747 mmHg 86%
06:00 +1°C° 0 mm 4 m/s 747 mmHg 77%
07:00 +3°C° 0 mm 4 m/s 747 mmHg 69%
08:00 +3°C° 0 mm 5 m/s 747 mmHg 60%
09:00 +6°C° 0 mm 5 m/s 747 mmHg 52%
10:00 +7°C° 0 mm 5 m/s 747 mmHg 43%
11:00 +7°C° 0 mm 5 m/s 747 mmHg 43%
12:00 +8°C° 0 mm 5 m/s 747 mmHg 43%
13:00 +8°C° 0 mm 5 m/s 746 mmHg 43%
14:00 +8°C° 0 mm 5 m/s 746 mmHg 44%
15:00 +8°C° 0 mm 5 m/s 746 mmHg 45%
16:00 +8°C° 0 mm 5 m/s 746 mmHg 46%
17:00 +7°C° 0 mm 4 m/s 746 mmHg 53%
18:00 +6°C° 0 mm 4 m/s 745 mmHg 60%
19:00 +4°C° 0 mm 3 m/s 745 mmHg 68%
20:00 +4°C° 0.1 mm 3 m/s 745 mmHg 74%
21:00 +4°C° 0.1 mm 3 m/s 745 mmHg 80%
22:00 +3°C° 0.1 mm 3 m/s 745 mmHg 87%
23:00 +2°C° 0 mm 3 m/s 745 mmHg 88%

Poimâine, 25 Aprilie, Duminică

Timp Temperatura Precipitaţii Vânt Presiune Umiditate
00:00 +1°C° 0 mm 3 m/s 745 mmHg 89%
01:00 0°C° 0 mm 3 m/s 746 mmHg 90%
02:00 -1°C° 0 mm 3 m/s 746 mmHg 90%
03:00 -2°C° 0 mm 3 m/s 746 mmHg 90%
04:00 -2°C° 0 mm 3 m/s 746 mmHg 90%
05:00 -1°C° 0 mm 3 m/s 746 mmHg 80%
06:00 0°C° 0 mm 3 m/s 747 mmHg 70%
07:00 +1°C° 0 mm 3 m/s 747 mmHg 59%
08:00 +3°C° 0 mm 4 m/s 747 mmHg 53%
09:00 +4°C° 0 mm 4 m/s 747 mmHg 47%
10:00 +5°C° 0 mm 5 m/s 747 mmHg 41%
11:00 +5°C° 0 mm 5 m/s 746 mmHg 41%
12:00 +6°C° 0 mm 5 m/s 746 mmHg 40%
13:00 +6°C° 0 mm 5 m/s 746 mmHg 40%
14:00 +6°C° 0 mm 5 m/s 746 mmHg 42%
15:00 +6°C° 0 mm 5 m/s 746 mmHg 43%
16:00 +6°C° 0 mm 5 m/s 745 mmHg 45%
17:00 +3°C° 0.1 mm 5 m/s 745 mmHg 53%
18:00 +3°C° 0.1 mm 4 m/s 745 mmHg 62%
19:00 +2°C° 0.1 mm 3 m/s 745 mmHg 70%
20:00 +1°C° 0 mm 3 m/s 745 mmHg 74%
21:00 0°C° 0 mm 3 m/s 745 mmHg 79%
22:00 0°C° 0 mm 3 m/s 745 mmHg 83%
23:00 -1°C° 0 mm 3 m/s 745 mmHg 86%

26 Aprilie, Luni

Timp Temperatura Precipitaţii Vânt Presiune Umiditate
00:00 -1°C° 0 mm 3 m/s 745 mmHg 88%
01:00 -1°C° 0 mm 2 m/s 745 mmHg 91%
02:00 -2°C° 0 mm 2 m/s 745 mmHg 91%
03:00 -3°C° 0 mm 2 m/s 745 mmHg 92%
04:00 -3°C° 0 mm 2 m/s 745 mmHg 93%
05:00 -2°C° 0 mm 3 m/s 745 mmHg 83%
06:00 0°C° 0 mm 3 m/s 745 mmHg 74%
07:00 +1°C° 0 mm 3 m/s 745 mmHg 64%
08:00 +2°C° 0 mm 3 m/s 745 mmHg 58%
09:00 +4°C° 0 mm 4 m/s 745 mmHg 51%
10:00 +5°C° 0 mm 4 m/s 745 mmHg 45%
11:00 +5°C° 0 mm 4 m/s 745 mmHg 43%
12:00 +6°C° 0 mm 4 m/s 744 mmHg 42%
13:00 +6°C° 0 mm 4 m/s 744 mmHg 40%
14:00 +6°C° 0.1 mm 5 m/s 743 mmHg 44%
15:00 +6°C° 0.1 mm 5 m/s 743 mmHg 47%
16:00 +5°C° 0.1 mm 5 m/s 743 mmHg 51%
17:00 +4°C° 0.1 mm 4 m/s 743 mmHg 57%
18:00 +3°C° 0.1 mm 3 m/s 743 mmHg 64%
19:00 +2°C° 0.1 mm 2 m/s 743 mmHg 71%
20:00 +2°C° 0 mm 2 m/s 743 mmHg 73%
21:00 +1°C° 0 mm 2 m/s 743 mmHg 75%
22:00 -1°C° 0 mm 2 m/s 743 mmHg 77%
23:00 -1°C° 0 mm 2 m/s 743 mmHg 79%

27 Aprilie, Marţi

Timp Temperatura Precipitaţii Vânt Presiune Umiditate
00:00 -1°C° 0 mm 2 m/s 743 mmHg 82%
01:00 -2°C° 0 mm 2 m/s 743 mmHg 85%
02:00 -2°C° 0 mm 2 m/s 743 mmHg 85%
03:00 -2°C° 0 mm 2 m/s 743 mmHg 86%
04:00 -2°C° 0 mm 2 m/s 742 mmHg 87%
05:00 +1°C° 0 mm 2 m/s 743 mmHg 80%
06:00 +2°C° 0 mm 2 m/s 743 mmHg 73%
07:00 +4°C° 0 mm 2 m/s 743 mmHg 66%
08:00 +5°C° 0 mm 2 m/s 743 mmHg 59%
09:00 +7°C° 0 mm 2 m/s 743 mmHg 53%
10:00 +8°C° 0 mm 2 m/s 742 mmHg 46%
11:00 +9°C° 0 mm 2 m/s 742 mmHg 45%
12:00 +11°C° 0 mm 1 m/s 742 mmHg 43%
13:00 +12°C° 0 mm 1 m/s 741 mmHg 41%
14:00 +12°C° 0 mm 1 m/s 741 mmHg 41%
15:00 +12°C° 0 mm 2 m/s 741 mmHg 41%
16:00 +12°C° 0 mm 2 m/s 740 mmHg 41%
17:00 +10°C° 0 mm 2 m/s 740 mmHg 48%
18:00 +8°C° 0 mm 3 m/s 740 mmHg 55%
19:00 +7°C° 0 mm 3 m/s 740 mmHg 62%
20:00 +5°C° 0 mm 3 m/s 739 mmHg 63%
21:00 +5°C° 0 mm 4 m/s 739 mmHg 64%
22:00 +5°C° 0 mm 4 m/s 739 mmHg 65%
23:00 +4°C° 0 mm 4 m/s 738 mmHg 65%

28 Aprilie, Miercuri

Timp Temperatura Precipitaţii Vânt Presiune Umiditate
00:00 +4°C° 0 mm 4 m/s 738 mmHg 65%
01:00 +4°C° 0 mm 4 m/s 737 mmHg 65%
02:00 +4°C° 0.1 mm 4 m/s 737 mmHg 68%
03:00 +4°C° 0.1 mm 4 m/s 736 mmHg 71%
04:00 +4°C° 0.1 mm 3 m/s 736 mmHg 74%
05:00 +4°C° 0.5 mm 3 m/s 736 mmHg 80%
06:00 +4°C° 0.5 mm 4 m/s 735 mmHg 85%
07:00 +3°C° 0.5 mm 4 m/s 735 mmHg 90%
08:00 +4°C° 0.2 mm 4 m/s 735 mmHg 90%
09:00 +5°C° 0.2 mm 4 m/s 734 mmHg 91%
10:00 +5°C° 0.2 mm 4 m/s 734 mmHg 91%
11:00 +7°C° 0 mm 3 m/s 734 mmHg 92%
12:00 +8°C° 0 mm 3 m/s 734 mmHg 92%
13:00 +8°C° 0 mm 3 m/s 733 mmHg 92%
14:00 +8°C° 0.3 mm 3 m/s 733 mmHg 93%
15:00 +8°C° 0.3 mm 3 m/s 733 mmHg 95%
16:00 +8°C° 0.3 mm 3 m/s 733 mmHg 96%
17:00 +8°C° 0.8 mm 3 m/s 733 mmHg 96%
18:00 +7°C° 0.8 mm 3 m/s 733 mmHg 96%
19:00 +7°C° 0.8 mm 3 m/s 733 mmHg 96%
20:00 +6°C° 0 mm 4 m/s 734 mmHg 96%
21:00 +6°C° 0 mm 4 m/s 734 mmHg 95%
22:00 +6°C° 0 mm 4 m/s 734 mmHg 95%
23:00 +5°C° 0 mm 4 m/s 735 mmHg 95%
Arată mai mult

Formular de consimțământ

Meteoprog și furnizorii noștri de servicii pot stoca și accesa date personale, precum cookies, identificatori de dispozitiv sau alte tehnologii similare pe dispozitivul dumneavoastră și procesa astfel de date pentru a personaliza conținutul și reclamele, dar și pentru a oferi caracteristici de social media și pentru a analiza traficul.

  • Stocarea și/sau accesarea informațiilor pe dispozitivul dumneavoastră

    Cookies, identificatori de dispozitiv sau alte informații pot fi stocate sau accesate pe dispozitiv în scopurile indicate mai sus.

  • Reclame și conținut personalizat, evaluarea reclamelor și a conținutului, informații despre audiențe și dezvoltarea produselor

    Reclamele și conținutul pot fi personalizate pe baza unui profil. Pot fi adăugate date suplimentare pentru a personaliza mai bine reclamele și conținutul. Performanța reclamelor și conținutului poate fi măsurată. Pot fi obținute informații despre utilizatorii care au văzut reclamele și conținutul. Aceste date pot fi utilizate pentru a dezvolta sau îmbunătăți experiența utilizatorilor, sistemele și software-ul.

Dând clic pe ‘Sunt de acord’, permiteți utilizarea cookie-urilor menționate, a identificatorilor de dispozitiv, balizelor web sau altor tehnologii similare. Setările pot fi modificate din browser-ul dispozitivului dumneavoastră.

În anumite scopuri, interesele legitime pot prima asupra consimțământului. Puteți citi mai multe informații în acest sens în Politica privind Confidențialitatea Datelor și Cookie.